Regional Weather Roundup
Issued by NWS

Home | Current Version | Previous Version | Graphics & Text | Print | Product List | Glossary On
Versions: 1 2 3 4 5 6 7 8 9 10 11 12 13 14 15 16 17 18 19 20 21 22 23 24 25 26 27 28 29 30 31 32 33 34 35 36 37 38 39 40 41 42 43 44 45 46 47 48 49 50
000
ASUS43 KDTX 270910
RWRMI
MICHIGAN HOURLY REGIONAL WEATHER ROUNDUP
NATIONAL WEATHER SERVICE DETROIT/PONTIAC MI
500 AM EDT MON MAR 27 2017

NOTE: "FAIR" INDICATES FEW OR NO CLOUDS BELOW 12,000 FEET WITH NO
SIGNIFICANT WEATHER AND/OR OBSTRUCTION TO VISIBILITY.

MIZ047>049-052>055-059>063-066>070-074>076-081>083-271000-
SOUTHEAST LOWER MICHIGAN

CITY           SKY/WX    TMP DP  RH WIND       PRES   REMARKS
ADRIAN         CLOUDY    51  51 100 W7        29.89R FOG
ALMA           CLOUDY    51  51 100 W6        29.82S FOG
ANN ARBOR      CLOUDY    50  50 100 SW5       29.86R FOG
BAD AXE        FOG       47  47 100 SW5       29.82S VSB 1/4
CARO           CLOUDY    50  50 100 CALM      29.82S FOG
DETROIT CITY   CLOUDY    50  50 100 W6        29.85S FOG
DETROIT        CLOUDY    52  51  97 W8        29.86R FOG
FLINT          MOCLDY    51  50  96 SW7       29.83R FOG
GROSSE ILE     CLOUDY    44  44  99 CALM      29.85S FOG
HILLSDALE      CLOUDY    50  48  93 SW7       29.87R FOG
HOWELL         CLOUDY    51  49  93 SW5       29.84R FOG

CITY           SKY/WX    TMP DP  RH WIND       PRES   REMARKS
JACKSON        CLOUDY    52  51  97 SW9       29.87R
LAMBERTVILLE   CLOUDY    55  52  90 SW7       29.88R
LANSING        CLOUDY    52  49  89 SW13      29.85R
LAPEER         LGT RAIN  50  50  99 CALM      29.82F
MASON          CLOUDY    52  51  97 SW7       29.85R FOG
MONROE         CLOUDY    52  52 100 SW9       29.86R FOG
MT. CLEMENS    CLOUDY    45  45 100 CALM      29.83R FOG
PONTIAC        CLOUDY    50  49  96 SW7       29.84R FOG
PORT HOPE        N/A     49  48  97 SW3       29.79F
PORT HURON     FOG       46  46 100 CALM      29.83F VSB 1/2
TRI CITIES     FOG       48  48 100 SW6       29.81F VSB 1/2
MIDLAND        SNOW      43  42  97 CALM      29.81S VSB 1/4
TROY           FOG       50  49  95 SW6       29.87R VSB 3/4
SAGINAW HB     CLOUDY    52  48  87 SW7       29.81S FOG
$$
MIZ043>046-050>051-056>058-064>065-071>073-077>080-271000-
SOUTHWEST LOWER MICHIGAN

CITY           SKY/WX    TMP DP  RH WIND       PRES   REMARKS
BATTLE CREEK   CLOUDY    51  51 100 SW10      29.87R FOG
BENTON HARBOR  CLOUDY    45  43  93 W7        29.89S FOG
BIG RAPIDS     CLOUDY    45  44  97 W9        29.82R
COLDWATER      CLOUDY    52  52  99 W8        29.88S
FREMONT        CLOUDY    42  42 100 W7        29.84S
HOLLAND        CLOUDY    42  41  96 W9        29.89R
GRAND RAPIDS   CLOUDY    45  45 100 W9        29.86R FOG
IONIA          CLOUDY    49  49  97 W12       29.84R
KALAMAZOO      CLOUDY    51  48  89 W13       29.87S
LUDINGTON      CLOUDY    37  37 100 W6        29.86R WCI  32
MARSHALL       DRIZZLE   52  51  97 W7        29.86R
MOUNT PLEASANT FOG       43  42  97 CALM      29.81S VSB 1/4
MUSKEGON       LGT RAIN  40  39  97 W5        29.88R
SOUTH HAVEN    LGT RAIN  42  42 100 W3        29.89R VSB 1
$$
MIZ016>042-271000-
NORTHERN LOWER MICHIGAN

CITY           SKY/WX    TMP DP  RH WIND       PRES   REMARKS
ALPENA         CLOUDY    38  38 100 CALM      29.80S
BEAVER ISLAND  CLOUDY    33  33 100 N3        29.82S FOG
BELLAIRE       FOG       40  39  96 CALM      29.80S VSB 3/4
CADILLAC       FOG       43  42  97 W3        29.79R VSB 1/2
CHARLEVOIX     FOG       35  35 100 NW3       29.84R VSB 1/2
FRANKFORT      CLOUDY    37  35  93 CALM      29.83S FOG
GAYLORD        FOG       42  38  85 SW3       29.78S VSB 1/4
GRAYLING       FOG       39  39 100 CALM      29.80S VSB 1/4
HARBOR SPRINGS FOG       35  35  99 CALM      29.80S VSB 1/2
HOUGHTON LAKE  FOG       40  39  97 CALM      29.79F VSB 1/4
MANISTEE       CLOUDY    37  37 100 W6        29.85R FOG     WCI  32
OSCODA         MIX PCPN  40  40  98 CALM      29.79F VSB 3/4
PELLSTON       FOG       35  34  96 CALM      29.80F VSB 1/2
ROGERS CITY    CLOUDY    36  35  96 CALM        N/A  FOG
TRAVERSE CITY  CLOUDY    41  40  96 NW6       29.80S FOG
$$
MIZ007>008-015-271000-
EASTERN UPPER MICHIGAN

CITY           SKY/WX    TMP DP  RH WIND       PRES   REMARKS
KINROSS        MIX PCPN N/A N/A N/A NE5       29.81F
MACKINAC ISLAN MIX PCPN  32  32 100 N5        29.80F VSB 1/2 WCI  27
NEWBERRY       CLOUDY    32  31  97 CALM      29.81F FOG
S. S. MARIE    LGT RAIN  35  34  96 CALM      29.81F FOG
MUNISING         N/A     34  34 100 N9        29.84F WCI  27
$$
MIZ004>006-011>014-085-271000-
CENTRAL UPPER MICHIGAN

CITY           SKY/WX    TMP DP  RH WIND       PRES   REMARKS
MANISTIQUE     CLOUDY    32  32 100 N3        29.83S
ESCANABA       CLOUDY    34  33  96 N5        29.85F WCI  30
MENOMINEE        N/A    N/A N/A N/A MISG        N/A
SAWYER-GWINN   CLOUDY    32  31  97 N10       29.83F WCI  24
$$
MIZ001>003-009>011-084-271000-
WESTERN UPPER MICHIGAN

CITY           SKY/WX    TMP DP  RH WIND       PRES   REMARKS
IRON MOUNTAIN  CLOUDY    34  31  88 NW6       29.83S WCI  29
HOUGHTON       CLOUDY    33  31  92 N7        29.86F WCI  27
COPPER HARBOR    N/A     34  33  96 NE8       29.88F WCI  27
IRONWOOD       FOG       32  32 100 NW7       29.91S VSB 1/4 WCI  26
$$

ABBREVIATIONS USED IN REMARKS
   TC - TEMPERATURE IN CELSIUS
  WCI - WIND CHILL INDEX
   HX - HEAT INDEX
  VSB - VISIBILITY





USA.gov is the U.S. government's official web portal to all federal, state and local government web resources and services.